Location: Huisseau
(47.5933°N, 1.4533°E)
Time: 18:45:16
(UTC+00:00)

CENTAUR R/B - Pass Details

Date: 27 November 2025
Orbit: 633 x 1547 km, 63.4° (Epoch: 06 December)

Event Time Altitude Azimuth Distance (km) Brightness Sun altitude
Rises 18:38:36 0° 216° (SW) 3,209 5.8 -24.9°
Reaches altitude 10° 18:40:46 10° 216° (SW) 2,379 5.0 -25.3°
Maximum altitude 18:46:16 86° 130° (SE) 946 2.3 -26.2°
Enters shadow 18:47:35 59° 45° (NE) 1,114 2.5 -26.4°
